Find ALSAT-1B

NORAD ID: 41785 Int'l Des: 2016-059 Owner: ASAL Country: DZ operational
LEOCIRCULARRETROGRADESSO

Live-Position

3D-Globus wird geladen...

Über ALSAT-1B

Beschreibung wird geladen...

Nächste Überflüge

Passes for default location (London). Set your location on the main map for personalized predictions.

Höhenverlauf

Loading altitude history...

Zweizeiliger Elementsatz

1 41785U 16059C 26104.96527605 .00000177 00000-0 35431-4 0 9994
2 41785 97.7785 116.4540 0010756 72.0766 288.1613 14.72225845511273
Epoch: 14. Apr. 2026 • Age: 5 hours

Aktueller Status

Höhe 670.1 km
Geschwindigkeit 7.52 km/s
Subsatellitenpunkt -36.31°S, 139.37°W
Startdatum 26. Sept. 2016
Alter 9.5 years
Typ other

Technische Details

Klassifizierung Payload
Masse 103.00 kg
Trockenmasse 103.00 kg
Gesamtmasse 103.00 kg
Länge 0.60 m
Durchmesser 0.60 m
Spannweite 6.60 m
Form Box + Ant
Hersteller SSTLA
Bus-Typ SSTL-100
Phasenstatus In Orbit
Besitzer/Staat ASAL/DZ

Most Searched